• In Österreich
  • Länderverzeichnis
  • Für 7 Tage
  • Wassertemperatur
  • Satellitenkarten
  • Wetterkarte
  • News
  • Widgets
  • user-avatar
    Anmelden

    Stündliche Wetter Kalsko

    Heute, 20 April, Freitag

    Zeit Temperatur Niederschläge Wind Luftdruck Luftfeuchtigkeit
    00:00 +14°C° 0 mm 2 m/S 767 mmHg 87%
    01:00 +14°C° 0 mm 2 m/S 766 mmHg 89%
    02:00 +14°C° 0 mm 2 m/S 766 mmHg 90%
    03:00 +13°C° 0 mm 2 m/S 766 mmHg 90%
    04:00 +13°C° 0 mm 2 m/S 766 mmHg 90%
    05:00 +14°C° 0 mm 2 m/S 766 mmHg 86%
    06:00 +14°C° 0 mm 2 m/S 765 mmHg 82%
    07:00 +14°C° 0 mm 3 m/S 765 mmHg 78%
    08:00 +18°C° 0 mm 3 m/S 765 mmHg 71%
    09:00 +20°C° 0 mm 3 m/S 765 mmHg 65%
    10:00 +22°C° 0 mm 3 m/S 764 mmHg 59%
    11:00 +24°C° 0 mm 3 m/S 764 mmHg 55%
    12:00 +25°C° 0 mm 3 m/S 763 mmHg 50%
    13:00 +27°C° 0 mm 3 m/S 763 mmHg 46%
    14:00 +27°C° 0 mm 3 m/S 762 mmHg 45%
    15:00 +27°C° 0 mm 3 m/S 762 mmHg 45%
    16:00 +28°C° 0 mm 3 m/S 761 mmHg 44%
    17:00 +26°C° 0 mm 3 m/S 761 mmHg 51%
    18:00 +24°C° 0 mm 3 m/S 760 mmHg 58%
    19:00 +21°C° 0 mm 3 m/S 760 mmHg 65%
    20:00 +20°C° 0 mm 3 m/S 760 mmHg 68%
    21:00 +19°C° 0 mm 3 m/S 760 mmHg 70%
    22:00 +18°C° 0 mm 3 m/S 759 mmHg 73%
    23:00 +18°C° 0 mm 3 m/S 759 mmHg 75%

    Morgen, 21 April, Samstag

    Zeit Temperatur Niederschläge Wind Luftdruck Luftfeuchtigkeit
    00:00 +17°C° 0 mm 3 m/S 759 mmHg 77%
    01:00 +17°C° 0 mm 3 m/S 759 mmHg 80%
    02:00 +16°C° 0 mm 3 m/S 759 mmHg 82%
    03:00 +14°C° 0 mm 3 m/S 759 mmHg 85%
    04:00 +14°C° 0 mm 2 m/S 759 mmHg 88%
    05:00 +13°C° 0 mm 3 m/S 759 mmHg 83%
    06:00 +14°C° 0 mm 3 m/S 760 mmHg 78%
    07:00 +14°C° 0 mm 3 m/S 760 mmHg 74%
    08:00 +16°C° 0 mm 3 m/S 760 mmHg 68%
    09:00 +18°C° 0 mm 3 m/S 760 mmHg 61%
    10:00 +19°C° 0 mm 4 m/S 760 mmHg 55%
    11:00 +20°C° 0 mm 4 m/S 760 mmHg 51%
    12:00 +20°C° 0 mm 4 m/S 760 mmHg 47%
    13:00 +21°C° 0 mm 4 m/S 760 mmHg 44%
    14:00 +21°C° 0 mm 4 m/S 760 mmHg 43%
    15:00 +20°C° 0 mm 4 m/S 760 mmHg 43%
    16:00 +20°C° 0 mm 4 m/S 760 mmHg 43%
    17:00 +18°C° 0 mm 4 m/S 760 mmHg 49%
    18:00 +16°C° 0 mm 3 m/S 760 mmHg 55%
    19:00 +13°C° 0 mm 3 m/S 760 mmHg 60%
    20:00 +13°C° 0 mm 2 m/S 760 mmHg 64%
    21:00 +12°C° 0 mm 2 m/S 760 mmHg 67%
    22:00 +10°C° 0 mm 2 m/S 760 mmHg 70%
    23:00 +10°C° 0 mm 1 m/S 760 mmHg 72%

    übermorgen, 22 April, Sonntag

    Zeit Temperatur Niederschläge Wind Luftdruck Luftfeuchtigkeit
    00:00 +10°C° 0 mm 1 m/S 760 mmHg 74%
    01:00 +9°C° 0 mm 1 m/S 761 mmHg 76%
    02:00 +9°C° 0 mm 1 m/S 760 mmHg 78%
    03:00 +9°C° 0 mm 1 m/S 760 mmHg 80%
    04:00 +8°C° 0 mm 1 m/S 760 mmHg 82%
    05:00 +9°C° 0 mm 1 m/S 760 mmHg 78%
    06:00 +11°C° 0 mm 1 m/S 760 mmHg 73%
    07:00 +12°C° 0 mm 1 m/S 760 mmHg 69%
    08:00 +14°C° 0 mm 1 m/S 760 mmHg 62%
    09:00 +16°C° 0 mm 1 m/S 760 mmHg 55%
    10:00 +19°C° 0 mm 1 m/S 759 mmHg 48%
    11:00 +20°C° 0 mm 1 m/S 759 mmHg 45%
    12:00 +21°C° 0 mm 1 m/S 759 mmHg 41%
    13:00 +22°C° 0 mm 1 m/S 759 mmHg 37%
    14:00 +22°C° 0 mm 1 m/S 758 mmHg 37%
    15:00 +22°C° 0 mm 1 m/S 757 mmHg 36%
    16:00 +22°C° 0 mm 1 m/S 757 mmHg 35%
    17:00 +20°C° 0 mm 1 m/S 757 mmHg 41%
    18:00 +18°C° 0 mm 1 m/S 756 mmHg 46%
    19:00 +16°C° 0 mm 1 m/S 756 mmHg 51%
    20:00 +15°C° 0 mm 2 m/S 756 mmHg 54%
    21:00 +14°C° 0 mm 2 m/S 756 mmHg 56%
    22:00 +14°C° 0 mm 2 m/S 756 mmHg 58%
    23:00 +13°C° 0 mm 2 m/S 755 mmHg 60%

    23 April, Montag

    Zeit Temperatur Niederschläge Wind Luftdruck Luftfeuchtigkeit
    00:00 +13°C° 0 mm 2 m/S 755 mmHg 62%
    01:00 +12°C° 0 mm 3 m/S 755 mmHg 64%
    02:00 +12°C° 0 mm 3 m/S 754 mmHg 67%
    03:00 +12°C° 0 mm 3 m/S 754 mmHg 69%
    04:00 +12°C° 0 mm 3 m/S 753 mmHg 71%
    05:00 +13°C° 0,1 mm 3 m/S 753 mmHg 74%
    06:00 +14°C° 0,1 mm 3 m/S 752 mmHg 77%
    07:00 +14°C° 0,1 mm 3 m/S 752 mmHg 80%
    08:00 +17°C° 0,4 mm 4 m/S 752 mmHg 79%
    09:00 +18°C° 0,4 mm 4 m/S 752 mmHg 79%
    10:00 +19°C° 0,4 mm 5 m/S 752 mmHg 79%
    11:00 +20°C° 0,3 mm 5 m/S 752 mmHg 73%
    12:00 +21°C° 0,3 mm 6 m/S 752 mmHg 68%
    13:00 +22°C° 0,3 mm 6 m/S 752 mmHg 62%
    14:00 +21°C° 0,2 mm 7 m/S 752 mmHg 60%
    15:00 +21°C° 0,2 mm 7 m/S 752 mmHg 59%
    16:00 +20°C° 0,2 mm 7 m/S 752 mmHg 57%
    17:00 +17°C° 0 mm 6 m/S 753 mmHg 60%
    18:00 +15°C° 0 mm 5 m/S 753 mmHg 64%
    19:00 +14°C° 0 mm 4 m/S 754 mmHg 67%
    20:00 +13°C° 0 mm 3 m/S 754 mmHg 71%
    21:00 +12°C° 0 mm 2 m/S 754 mmHg 75%
    22:00 +10°C° 0 mm 2 m/S 755 mmHg 79%
    23:00 +10°C° 0 mm 2 m/S 755 mmHg 80%

    24 April, Dienstag

    Zeit Temperatur Niederschläge Wind Luftdruck Luftfeuchtigkeit
    00:00 +10°C° 0 mm 2 m/S 755 mmHg 81%
    01:00 +10°C° 0 mm 2 m/S 755 mmHg 82%
    02:00 +9°C° 0 mm 3 m/S 755 mmHg 83%
    03:00 +9°C° 0 mm 3 m/S 755 mmHg 84%
    04:00 +9°C° 0 mm 3 m/S 756 mmHg 85%
    05:00 +8°C° 0 mm 4 m/S 756 mmHg 81%
    06:00 +8°C° 0 mm 4 m/S 756 mmHg 76%
    07:00 +9°C° 0 mm 5 m/S 756 mmHg 72%
    08:00 +10°C° 0 mm 5 m/S 756 mmHg 67%
    09:00 +12°C° 0 mm 5 m/S 756 mmHg 62%
    10:00 +13°C° 0 mm 5 m/S 756 mmHg 57%
    11:00 +14°C° 0,1 mm 5 m/S 756 mmHg 57%
    12:00 +15°C° 0,1 mm 5 m/S 756 mmHg 57%
    13:00 +15°C° 0,1 mm 6 m/S 756 mmHg 57%
    14:00 +15°C° 0,1 mm 5 m/S 755 mmHg 64%
    15:00 +14°C° 0,1 mm 5 m/S 755 mmHg 70%
    16:00 +13°C° 0,1 mm 4 m/S 755 mmHg 77%
    17:00 +13°C° 0,1 mm 4 m/S 755 mmHg 79%
    18:00 +13°C° 0,1 mm 3 m/S 754 mmHg 81%
    19:00 +12°C° 0,1 mm 3 m/S 754 mmHg 83%
    20:00 +12°C° 0,2 mm 3 m/S 754 mmHg 86%
    21:00 +12°C° 0,2 mm 3 m/S 754 mmHg 89%
    22:00 +12°C° 0,2 mm 3 m/S 754 mmHg 92%
    23:00 +12°C° 0,1 mm 3 m/S 754 mmHg 93%

    25 April, Mittwoch

    Zeit Temperatur Niederschläge Wind Luftdruck Luftfeuchtigkeit
    00:00 +12°C° 0,1 mm 3 m/S 754 mmHg 94%
    01:00 +12°C° 0,1 mm 3 m/S 753 mmHg 95%
    02:00 +12°C° 0,4 mm 3 m/S 753 mmHg 95%
    03:00 +13°C° 0,4 mm 2 m/S 753 mmHg 96%
    04:00 +12°C° 0,4 mm 2 m/S 753 mmHg 96%
    05:00 +13°C° 0,3 mm 2 m/S 753 mmHg 96%
    06:00 +13°C° 0,3 mm 2 m/S 753 mmHg 95%
    07:00 +13°C° 0,3 mm 2 m/S 752 mmHg 95%
    08:00 +13°C° 0,4 mm 3 m/S 752 mmHg 90%
    09:00 +14°C° 0,4 mm 4 m/S 752 mmHg 86%
    10:00 +15°C° 0,4 mm 4 m/S 752 mmHg 82%
    11:00 +16°C° 0,4 mm 5 m/S 751 mmHg 78%
    12:00 +16°C° 0,4 mm 6 m/S 751 mmHg 75%
    13:00 +17°C° 0,4 mm 6 m/S 750 mmHg 71%
    14:00 +16°C° 0,7 mm 5 m/S 750 mmHg 75%
    15:00 +16°C° 0,7 mm 5 m/S 749 mmHg 80%
    16:00 +15°C° 0,7 mm 4 m/S 749 mmHg 84%
    17:00 +14°C° 0,7 mm 4 m/S 749 mmHg 87%
    18:00 +13°C° 0,7 mm 4 m/S 749 mmHg 90%
    19:00 +12°C° 0,7 mm 3 m/S 749 mmHg 93%
    20:00 +12°C° 0,2 mm 4 m/S 750 mmHg 92%
    21:00 +11°C° 0,2 mm 4 m/S 751 mmHg 92%
    22:00 +10°C° 0,2 mm 4 m/S 751 mmHg 91%
    23:00 +10°C° 0 mm 4 m/S 752 mmHg 92%
    Mehr zeigen